Terminal Aerodrome Forecast
Issued by NWS

Home | Current Version | Previous Version | Text Only | Print | Product List | Glossary On
Versions: 1 2 3 4 5 6 7 8 9 10 11 12 13 14 15 16 17 18 19 20 21 22 23 24
000
FTUS45 KGGW 210500
TAFGDV
TAF
KGDV 210520Z 2106/2206 VRB03KT P6SM SCT140
     FM211200 VRB04KT P6SM VCSH BKN100
     FM220000 VRB06KT 5SM -SHRA BKN050
      AMD LTD TO CLD VIS AND WIND=

USA.gov is the U.S. government's official web portal to all federal, state and local government web resources and services.